Weather in Krasnohrad

Ukraine / Kharkiv Region     49°22′10″N   35°26′56″E
temp.,
°C
wind,
m/s
gust,
m/s
humid.,
%
clouds,
%
prec.,
mm/h
press.,
hPa
HPBL,
m
17 june, thu
thu1700:00+17ne4687100 0.0 101384
03:00+17nne4993100 0.0 1013156
06:00+18ne5129279 0.0 1013309
09:00+22ene710786 0.0 1014592
12:00+25ene786717 1.1 10151322
15:00+26ene796790 2.1 10141943
18:00+23ene498184 2.2 1015860
21:00+21ne7158999 4.2 1016577
18 june, fri
fri1800:00+20ene81692100 4.4 1016723
03:00+19ene61194100 6.0 1016655
06:00+18e6119577 0.3 1018774
09:00+18ene6992100 0.4 1020540
12:00+20ene71079100 0.1 1020843
15:00+24e81063100 0.1 10201365
18:00+19e51382100 0.1 1020428
21:00+17ene3108892 0.1 1021234
19 june, sat
sat1900:00+17ene4119465 0.0 1021257
03:00+18ene6138164 0.0 1020441
06:00+17ene6138555 0.0 1020444
09:00+20e710744 0.0 1020727
12:00+23e79681 0.0 10201008
15:00+25ese796767 0.0 10191260
18:00+24e610700 0.0 10191078
21:00+20ene513810 0.0 1020333
20 june, sun
sun2000:00+19ene6147960 0.0 1019385
03:00+17ene6157299 0.0 1019347
06:00+17ene61575100 0.0 1019359
09:00+21e715675 0.0 1018553
12:00+25e81256100 0.0 1018865
15:00+26e8126298 0.0 10161015
18:00+24e71369100 0.0 1016834
21:00+21ene6147498 0.1 1016459
21 june, mon
mon2100:00+18ene614840 0.6 1015313
03:00+18ene614790 0.6 1014294
06:00+18e6148051 0.0 1014301
09:00+23e7166438 0.0 1014625
12:00+27ese7125361 0.0 1014971
15:00+28e61056100 0.0 10141058
18:00+26ese61262100 0.0 1014693
21:00+21ene4979100 0.1 1014169